Weather History for KOGD - August, 2013

Change the Weather History Date:

Friday, August 9, 2013

  Actual Average Record
Temperature  
Mean Temperature 76 °F -  
Max Temperature 91 °F 91 °F 101 °F (1942)
Min Temperature 63 °F 58 °F 46 °F (1970)
Cooling Degree Days 12    
Growing Degree Days 26 (Base 50)    
Moisture  
Dew Point 37 °F    
Average Humidity 24    
Maximum Humidity 43    
Minimum Humidity 11    
Precipitation  
Precipitation 0.00 in - - ()
Sea Level Pressure  
Sea Level Pressure 29.84 in    
Wind  
Wind Speed 5 mph (South)    
Max Wind Speed 17 mph    
Max Gust Speed 28 mph    
Visibility 10 miles    
Events      
Averages and records for this station are not official NWS values.
T = Trace of Precipitation, MM = Missing Value Source: NWS Daily Summary

Daily Weather History Graph

Daily Weather History Graph

Search for Another Location

Airport or City:

Trip Planner

Search our weather history database for the weather conditions in past years. The results will help you decide how hot, cold, wet, or windy it might be!

Date:

Astronomy

Aug. 09, 2013 Rise Set
Actual Time 6:31 AM MDT 8:34 PM MDT
Civil Twilight 6:01 AM MDT 9:04 PM MDT
Nautical Twilight 5:24 AM MDT 9:41 PM MDT
Astronomical Twilight 4:44 AM MDT 10:21 PM MDT
Moon 9:23 AM MDT (8/9) 9:43 PM MDT (8/9)
Length of Visible Light 15h 03m
Length of Day
14h 02m
Waxing Crescent, 8% of the Moon is Illuminated
Aug 9
Waxing Crescent
Aug 14
First Quarter
Aug 20
Full
Aug 28
Last Quarter
Sep 5
New

Hourly Weather History & Observations

Time (MDT) Temp. Dew Point Humidity Pressure Visibility Wind Dir Wind Speed Gust Speed Precip Events Conditions
12:53 AM 73.0 °F 39.9 °F 30% 29.80 in 10.0 mi Calm Calm - N/A   Clear
1:53 AM 73.0 °F 37.9 °F 28% 29.80 in 10.0 mi Calm Calm - N/A   Clear
2:53 AM 72.0 °F 39.0 °F 30% 29.81 in 10.0 mi SE 4.6 mph - N/A   Clear
3:53 AM 68.0 °F 39.0 °F 35% 29.82 in 10.0 mi South 4.6 mph - N/A   Clear
4:53 AM 66.9 °F 39.9 °F 37% 29.83 in 10.0 mi South 9.2 mph - N/A   Clear
5:53 AM 64.9 °F 39.9 °F 40% 29.84 in 10.0 mi South 12.7 mph - N/A   Clear
6:53 AM 63.0 °F 39.9 °F 43% 29.85 in 10.0 mi South 6.9 mph - N/A   Clear
7:53 AM 66.9 °F 41.0 °F 39% 29.87 in 10.0 mi South 8.1 mph - N/A   Clear
8:53 AM 73.0 °F 41.0 °F 31% 29.88 in 10.0 mi South 4.6 mph - N/A   Clear
9:53 AM 75.0 °F 41.0 °F 29% 29.88 in 10.0 mi Calm Calm - N/A   Clear
10:53 AM 82.0 °F 36.0 °F 19% 29.88 in 10.0 mi Calm Calm - N/A   Clear
11:53 AM 84.0 °F 33.1 °F 16% 29.87 in 10.0 mi Variable 3.5 mph - N/A   Clear
12:53 PM 87.1 °F 33.1 °F 15% 29.86 in 10.0 mi Variable 3.5 mph - N/A   Clear
1:53 PM 88.0 °F 30.9 °F 13% 29.83 in 10.0 mi West 8.1 mph - N/A   Clear
2:53 PM 90.0 °F 28.9 °F 11% 29.81 in 10.0 mi NW 12.7 mph 16.1 mph N/A   Clear
3:53 PM 88.0 °F 30.0 °F 12% 29.81 in 10.0 mi WNW 8.1 mph - N/A   Clear
4:53 PM 84.9 °F 35.1 °F 17% 29.83 in 10.0 mi SE 17.3 mph 27.6 mph N/A   Clear
5:53 PM 88.0 °F 36.0 °F 16% 29.82 in 10.0 mi ESE 11.5 mph - N/A   Clear
6:53 PM 84.0 °F 36.0 °F 18% 29.83 in 10.0 mi SSE 15.0 mph 21.9 mph N/A   Clear
7:53 PM 81.0 °F 36.0 °F 20% 29.83 in 10.0 mi South 4.6 mph - N/A   Clear
8:53 PM 81.0 °F 35.1 °F 19% 29.82 in 10.0 mi SE 12.7 mph - N/A   Clear
9:53 PM 79.0 °F 35.1 °F 20% 29.84 in 10.0 mi Calm Calm - N/A   Clear
10:53 PM 77.0 °F 37.0 °F 24% 29.83 in 10.0 mi SSE 8.1 mph - N/A   Clear
11:53 PM 75.0 °F 37.0 °F 25% 29.84 in 10.0 mi South 12.7 mph - N/A   Clear